Find STARLINK-37839

NORAD ID: 799500941 Int'l Des: 2026-130U Constellation: starlink operational

当前视图

正在加载3D地球...

About STARLINK-37839

STARLINK-37839 (NORAD 799500941) is a starlink constellation satellite launched Jun 7, 2026

关于 STARLINK-37839

正在加载描述...

即将过境

Passes for default location (London). Set your location on the main map for personalized predictions.

高度历史

Loading altitude history...

两行轨道根数

1 99999C 2026130U 26163.05743056 .00465640 00000-0 699000-4 0 1633
2 99999 97.2793 182.7698 0011323 272.6546 165.7461 16.04334859 11
Epoch: Jun 12, 2026 • Age: 7 hours